Terminal Aerodrome Forecast
Issued by NWS

Home | Current Version | Previous Version | Graphics & Text | Print | Product List | Glossary On
Versions: 1 2 3 4 5 6 7 8 9 10 11 12 13 14 15 16 17 18
000
FTUS43 KFGF 261300 AAA
TAFBJI
TAF AMD
KBJI 261316Z 2613/2712 35009KT P6SM -SN OVC013
      TEMPO 2613/2616 BKN025
     FM261600 34010KT P6SM SCT025
     FM261800 33008KT P6SM SCT025=

USA.gov is the U.S. government's official web portal to all federal, state and local government web resources and services.